QPF
0.00 0.00 0.00 0.00 0.00 0.00 0.00 0.00 0.00 0.00 0.00 0.00 0.00 0.00 0.00 0.00 0.00 0.00 0.00 0.00 0.00 0.00 0.00 0.00 0.00 0.00 0.00 0.00 0.00 0.00 0.00 0.00
0.00 0.00 0.00 0.00 0.00 0.00 0.00 0.00 0.00 0.00 0.00 0.00 0.00 0.00 0.00 0.00 0.00 0.00 0.00 0.00 0.00 0.00 0.00 0.00 0.00 0.00 0.00 0.00 0.00 0.00 0.00 0.00
0.00 0.00 0.00 0.00 0.00 0.00 0.00 0.00 0.00 0.00 0.00 0.00 0.00 0.00 0.00 0.00 0.00 0.00 0.00 0.00 0.00 0.00 0.00 0.00 0.00 0.00 0.00 0.00 0.00 0.00 0.00 0.00
0.00 0.00 0.00 0.00 0.00 0.00 0.00 0.00 0.00 0.00 0.00 0.00 0.00 0.00 0.00 0.00 0.00 0.00 0.00 0.00 0.00 0.00 0.00 0.00 0.00 0.00 0.00 0.00 0.00 0.00 0.00 0.00
0.00 0.00 0.00 0.00 0.00 0.00 0.00 0.00 0.00 0.00 0.00 0.00 0.00 0.00 0.00 0.00 0.00 0.00 0.00 0.00 0.00 0.00 0.00 0.00 0.00 0.00 0.00 0.00 0.00 0.00 0.00 0.00
0.00 0.00 0.00 0.00 0.00 0.00 0.00 0.00 0.00 0.00 0.00 0.00 0.00 0.00 0.00 0.00 0.00 0.00 0.00 0.00 0.00 0.00 0.00 0.00 0.00 0.00 0.00 0.00 0.00 0.00 0.00 0.00
0.00 0.00 0.00 0.00 0.00 0.00 0.00 0.00 0.00 0.00 0.00 0.00 0.00 0.00 0.00 0.00 0.00 0.00 0.00 0.00 0.00 0.00 0.00 0.00 0.00 0.00 0.00 0.00 0.00 0.00 0.00 0.00
0.00 0.00 0.00 0.00 0.00 0.00 0.00 0.00 0.00 0.00 0.00 0.00 0.00 0.00 0.00 0.00 0.00 0.00 0.00 0.00 0.00 0.00 0.00 0.00 0.00 0.00 0.00 0.00 0.00 0.00 0.00 0.00
0.00 0.00 0.00 0.00 0.00 0.00 0.00 0.00 0.00 0.00 0.00 0.00 0.00 0.00 0.00 0.00 0.00 0.00 0.00 0.00 0.00 0.00 0.00 0.00 0.00 0.00 0.00 0.00 0.00 0.00 0.00 0.00
0.00 0.00 0.00 0.00 0.00 0.00 0.00 0.00 0.00 0.00 0.00 0.00 0.00 0.00 0.00 0.00 0.00 0.00 0.00 0.00 0.00 0.00 0.00 0.00 0.00 0.00 0.00 0.00 0.00 0.00 0.00 0.00
0.00 0.00 0.00 0.00 0.00 0.00 0.00 0.00 0.00 0.00 0.00 0.00 0.00 0.00 0.00 0.00 0.00 0.00 0.00 0.00 0.00 0.00 0.00 0.00 0.00 0.00 0.00 0.00 0.00 0.00 0.00 0.00
0.00 0.00 0.00 0.00 0.00 0.00 0.00 0.00 0.00 0.00 0.00 0.00 0.00 0.00 0.00 0.00 0.00 0.00 0.00 0.00 0.00 0.00 0.00 0.00 0.00 0.00 0.00 0.00 0.00 0.00 0.00 0.00
0.00 0.00 0.00 0.00 0.00 0.00 0.00 0.00 0.00 0.00 0.00 0.00 0.00 0.00 0.00 0.00 0.00 0.00 0.00 0.00 0.00 0.00 0.00 0.00 0.00 0.00 0.00 0.00 0.00 0.00 0.00 0.00
0.00 0.00 0.00 0.00 0.00 0.00 0.00 0.00 0.00 0.00 0.00 0.00 0.00 0.00 0.00 0.00 0.00 0.00 0.00 0.00 0.00 0.00 0.00 0.00 0.00 0.00 0.00 0.00 0.00 0.00 0.00 0.00
0.00 0.00 0.00 0.00 0.00 0.00 0.00 0.00 0.00 0.00 0.00 0.00 0.00 0.00 0.00 0.00 0.00 0.00 0.00 0.00 0.00 0.00 0.00 0.00 0.00 0.00 0.00 0.00 0.00 0.00 0.00 0.00
0.00 0.00 0.00 0.00 0.00 0.00 0.00 0.00 0.00 0.00 0.00 0.00 0.00 0.00 0.00 0.00 0.00 0.00 0.00 0.00 0.00 0.00 0.00 0.00 0.00 0.00 0.00 0.00 0.00 0.00 0.00 0.00
0.00 0.00 0.00 0.00 0.00 0.00 0.00 0.00 0.00 0.00 0.00 0.00 0.00 0.00 0.00 0.00 0.00 0.00 0.00 0.00 0.00 0.00 0.00 0.00 0.00 0.00 0.00 0.00 0.00 0.00 0.00 0.00
0.00 0.00 0.00 0.00 0.00 0.00 0.00 0.00 0.00 0.00 0.00 0.00 0.00 0.00 0.00 0.01 0.01 0.01 0.00 0.00 0.00 0.00 0.00 0.00 0.00 0.00 0.00 0.00 0.00 0.00 0.00 0.00
0.00 0.00 0.00 0.00 0.00 0.00 0.00 0.00 0.00 0.00 0.00 0.00 0.01 0.02 0.05 0.07 0.08 0.03 0.00 0.00 0.00 0.00 0.00 0.00 0.00 0.00 0.00 0.00 0.00 0.00 0.00 0.00
MSLP
1011.23 1011.87 1012.78 1013.74 1014.47 1015.20 1015.75 1016.50 1017.13 1017.63 1018.33 1019.12 1019.72 1020.20 1020.50 1020.77 1021.06 1021.23 1021.40 1021.63 1021.88 1022.15 1022.53 1022.77 1022.86 1022.79 1022.75 1022.62 1022.60 1022.59 1022.46 1022.11
1011.14 1011.95 1012.70 1013.65 1014.47 1015.15 1015.55 1016.21 1016.96 1017.39 1018.33 1019.25 1019.95 1020.50 1020.95 1021.21 1021.28 1021.51 1021.74 1022.01 1022.30 1022.55 1022.87 1023.06 1023.12 1023.03 1023.05 1022.99 1023.11 1023.20 1022.89 1022.39
1011.07 1011.87 1012.62 1013.13 1013.83 1014.49 1015.11 1015.73 1016.56 1017.11 1017.63 1018.52 1019.31 1020.23 1020.92 1021.12 1021.43 1021.70 1021.85 1022.06 1022.38 1022.62 1022.82 1023.00 1023.05 1023.12 1023.25 1023.33 1023.36 1023.43 1023.47 1023.14
1009.93 1010.92 1011.72 1012.82 1013.41 1013.96 1014.73 1015.44 1016.10 1016.74 1017.31 1018.19 1019.27 1020.23 1020.92 1021.49 1021.87 1022.13 1022.35 1022.34 1022.55 1022.74 1022.86 1023.12 1023.20 1023.20 1023.39 1023.57 1023.56 1023.57 1023.85 1023.90
1008.69 1009.76 1010.86 1011.62 1012.63 1013.59 1014.18 1014.98 1015.67 1016.35 1016.91 1017.59 1018.44 1019.21 1020.23 1020.91 1021.31 1021.73 1022.18 1022.42 1022.81 1022.95 1023.11 1023.25 1023.35 1023.44 1023.67 1023.84 1023.91 1024.01 1024.09 1024.45
1006.83 1007.69 1008.88 1010.40 1011.68 1012.75 1013.76 1014.55 1015.36 1015.95 1016.52 1016.99 1017.85 1018.84 1019.56 1020.39 1021.21 1021.74 1022.17 1022.59 1022.75 1022.90 1023.11 1023.28 1023.41 1023.63 1023.96 1024.17 1024.31 1024.53 1024.71 1024.93
1006.31 1007.59 1008.93 1009.91 1011.13 1012.09 1012.96 1013.83 1014.70 1015.41 1015.99 1016.62 1017.15 1018.14 1019.31 1020.42 1021.26 1021.76 1022.31 1022.52 1022.85 1023.07 1022.97 1023.35 1023.52 1023.77 1024.20 1024.48 1024.75 1024.96 1025.24 1025.40
1005.80 1006.91 1007.95 1009.12 1009.99 1011.06 1012.14 1013.12 1014.12 1014.94 1015.58 1016.25 1016.79 1017.55 1018.46 1019.48 1020.42 1021.18 1021.88 1022.35 1022.77 1022.93 1023.32 1023.53 1023.76 1024.15 1024.31 1024.67 1025.15 1025.42 1025.77 1025.88
1004.72 1005.51 1006.73 1008.01 1009.19 1010.33 1011.14 1012.17 1013.36 1014.35 1015.10 1015.83 1016.48 1017.17 1018.06 1018.91 1019.73 1020.68 1021.37 1022.04 1022.54 1022.99 1023.46 1023.77 1023.91 1024.30 1024.69 1025.05 1025.46 1025.69 1025.88 1025.99
1003.93 1005.54 1006.47 1007.73 1008.85 1009.71 1010.50 1011.72 1012.79 1013.83 1014.61 1015.37 1016.13 1016.90 1017.72 1018.55 1019.47 1020.45 1021.11 1021.77 1022.23 1022.87 1023.46 1023.74 1024.08 1024.37 1024.85 1025.24 1025.55 1025.94 1025.95 1026.08
1004.38 1005.08 1006.09 1007.32 1008.42 1009.38 1010.38 1011.16 1012.01 1013.09 1014.19 1015.15 1015.79 1016.44 1017.26 1018.15 1019.33 1020.17 1020.88 1021.54 1022.07 1022.75 1023.49 1023.70 1024.03 1024.45 1024.91 1025.38 1025.81 1026.04 1025.97 1026.17
1005.57 1006.18 1006.90 1007.66 1008.46 1009.06 1009.96 1010.87 1011.78 1012.78 1013.54 1014.55 1015.59 1016.50 1017.07 1017.82 1018.86 1019.81 1020.68 1021.38 1022.03 1022.55 1023.18 1023.43 1023.83 1024.30 1024.88 1025.32 1025.79 1026.05 1026.43 1026.08
1006.37 1006.93 1007.46 1008.01 1008.51 1009.12 1009.62 1010.47 1011.30 1012.11 1013.01 1013.98 1014.90 1015.91 1016.89 1017.74 1018.53 1019.30 1020.09 1020.82 1021.62 1022.30 1022.79 1023.31 1023.88 1024.26 1024.75 1025.26 1025.59 1025.98 1026.11 1025.90
1006.74 1007.25 1007.62 1008.16 1008.67 1009.05 1009.47 1009.99 1010.59 1011.40 1012.47 1013.42 1014.27 1015.11 1015.90 1016.95 1018.16 1019.03 1019.75 1020.55 1021.43 1022.09 1022.62 1023.29 1023.81 1024.47 1024.82 1025.19 1025.58 1025.54 1026.05 1026.42
1006.65 1007.03 1007.33 1007.80 1008.24 1008.71 1009.23 1009.99 1010.69 1011.43 1012.63 1013.63 1014.43 1015.08 1015.51 1016.52 1017.75 1018.60 1019.41 1020.10 1021.13 1021.79 1022.14 1022.73 1023.60 1024.22 1024.94 1025.22 1025.41 1025.56 1026.16 1026.57
1005.84 1006.23 1006.33 1006.87 1007.71 1008.29 1008.94 1009.80 1010.24 1011.05 1012.00 1013.31 1014.31 1015.58 1015.35 1016.47 1017.68 1018.50 1019.28 1020.20 1020.92 1021.64 1022.10 1022.69 1023.49 1024.21 1025.01 1025.15 1025.80 1026.12 1026.56 1026.39
1004.74 1005.15 1005.66 1006.01 1006.42 1007.22 1008.31 1008.91 1009.66 1010.80 1012.01 1013.15 1014.54 1015.93 1015.80 1016.58 1017.66 1018.53 1019.49 1020.28 1020.90 1021.51 1022.19 1022.74 1023.26 1023.69 1024.45 1025.01 1025.74 1025.94 1026.57 1026.43
1002.95 1003.55 1004.08 1004.65 1005.36 1006.25 1006.88 1008.65 1009.93 1010.56 1011.51 1012.81 1014.05 1015.65 1016.13 1017.01 1017.77 1019.07 1019.87 1020.46 1021.10 1021.46 1022.31 1022.61 1023.06 1023.65 1023.68 1024.87 1025.23 1025.76 1026.23 1026.36
1002.05 1001.96 1002.58 1003.27 1004.50 1005.54 1006.62 1007.78 1009.51 1010.85 1011.92 1012.48 1014.02 1015.34 1016.43 1017.39 1018.65 1019.33 1019.79 1020.59 1021.12 1021.62 1022.26 1022.79 1023.36 1023.64 1024.26 1024.87 1025.19 1025.60 1025.81 1025.98
Thickness
5677 5672 5665 5656 5649 5643 5639 5633 5628 5625 5620 5613 5608 5605 5602 5598 5595 5592 5590 5587 5582 5578 5574 5570 5567 5565 5562 5560 5556 5552 5547 5545
5668 5662 5656 5646 5639 5634 5631 5626 5620 5618 5611 5603 5597 5593 5588 5586 5584 5580 5577 5573 5569 5565 5561 5557 5554 5551 5547 5544 5539 5535 5533 5531
5656 5650 5647 5643 5637 5633 5626 5621 5614 5611 5607 5599 5593 5586 5580 5576 5573 5570 5567 5564 5559 5555 5552 5547 5544 5539 5534 5529 5524 5520 5517 5515
5658 5652 5646 5637 5633 5628 5620 5614 5608 5605 5600 5593 5584 5576 5570 5564 5560 5556 5553 5550 5547 5544 5540 5535 5531 5526 5520 5514 5510 5507 5501 5497
5661 5654 5645 5640 5631 5621 5616 5608 5603 5599 5594 5588 5582 5575 5568 5560 5555 5550 5545 5541 5535 5531 5527 5522 5517 5511 5505 5500 5495 5490 5485 5478
5669 5664 5655 5643 5629 5619 5609 5603 5598 5593 5588 5584 5576 5569 5562 5554 5546 5540 5535 5529 5524 5520 5515 5510 5504 5497 5490 5484 5480 5474 5468 5462
5664 5653 5643 5635 5623 5615 5607 5600 5593 5587 5582 5576 5572 5563 5553 5543 5533 5528 5522 5518 5512 5506 5504 5498 5491 5484 5476 5470 5464 5458 5450 5444
5658 5648 5641 5632 5623 5614 5604 5598 5589 5582 5575 5569 5564 5557 5549 5539 5530 5522 5514 5506 5499 5496 5490 5484 5477 5469 5463 5457 5449 5441 5433 5426
5654 5648 5639 5630 5620 5610 5604 5596 5586 5576 5568 5560 5554 5547 5540 5532 5523 5513 5504 5496 5489 5483 5475 5468 5462 5455 5449 5441 5432 5425 5418 5412
5651 5636 5629 5619 5610 5603 5599 5589 5579 5568 5559 5551 5544 5536 5530 5522 5512 5501 5493 5485 5478 5471 5462 5455 5448 5443 5434 5426 5418 5410 5404 5398
5633 5629 5620 5610 5601 5593 5585 5580 5571 5559 5548 5541 5534 5527 5520 5512 5500 5491 5482 5473 5466 5459 5448 5442 5436 5428 5419 5411 5403 5397 5392 5385
5606 5601 5598 5593 5588 5583 5575 5567 5558 5546 5541 5532 5522 5515 5510 5502 5491 5480 5470 5461 5453 5447 5437 5431 5424 5416 5407 5399 5391 5384 5376 5371
5584 5583 5578 5576 5573 5568 5564 5557 5549 5540 5534 5523 5515 5507 5498 5489 5480 5471 5461 5452 5443 5434 5426 5419 5411 5404 5395 5387 5380 5372 5365 5360
5564 5562 5563 5560 5557 5555 5551 5546 5540 5534 5524 5517 5508 5499 5492 5481 5469 5460 5450 5441 5431 5422 5414 5406 5398 5388 5381 5374 5368 5363 5353 5344
5546 5547 5548 5546 5546 5544 5540 5534 5527 5520 5510 5502 5495 5488 5482 5472 5459 5449 5439 5431 5420 5412 5407 5398 5387 5376 5366 5361 5357 5350 5339 5329
5537 5539 5540 5538 5532 5531 5528 5521 5517 5509 5501 5489 5481 5467 5467 5456 5445 5436 5427 5418 5409 5399 5393 5384 5374 5365 5352 5347 5338 5331 5322 5317
5534 5533 5533 5533 5530 5525 5517 5513 5507 5497 5487 5476 5464 5451 5450 5444 5432 5422 5412 5402 5395 5388 5379 5371 5366 5359 5344 5331 5326 5320 5308 5304
5541 5536 5533 5529 5525 5518 5515 5500 5490 5485 5478 5466 5455 5441 5435 5426 5418 5406 5394 5387 5380 5377 5367 5363 5356 5344 5339 5321 5313 5307 5297 5291
5530 5531 5529 5526 5513 5505 5500 5492 5477 5466 5458 5454 5441 5430 5421 5412 5398 5389 5382 5373 5368 5363 5356 5349 5339 5331 5321 5310 5301 5294 5287 5280